WA2CLK Weather Reports


time (UTC)temp
C
wind
direction
speed
KPH
gust
KPH
rain 1hr
cm
rain 24hr
cm
rain mn
cm
humidity
%
barometer
mb
20260906113607 22 0 0.0 0.0 0.00 6.22 0.03 97 1010.3
20260906112707 21 0 0.0 0.0 0.00 6.22 0.03 96 1010.2
20260906112019 21 0 0.0 0.0 0.00 6.22 0.03 96 1010.0
20260906110907 21 5 0.0 1.6 0.00 6.22 0.03 96 1009.8
20260906110007 21 5 0.0 6.4 0.00 6.22 0.03 96 1009.8
20260906105407 21 5 0.0 6.4 0.00 6.22 0.03 96 1009.8
20260906104507 21 357 1.6 9.7 0.00 6.22 0.03 96 1009.8
20260906103607 21 354 0.0 6.4 0.00 6.22 0.03 96 1009.7
20260906102707 21 350 0.0 4.8 0.00 6.22 0.03 96 1009.6
20260906101807 21 350 0.0 1.6 0.00 6.22 0.03 96 1009.6
20260906100907 21 349 0.0 4.8 0.00 6.22 0.03 96 1009.5
20260906100007 21 343 0.0 1.6 0.00 6.22 0.03 95 1009.2
20260906095616 21 0 0.0 0.0 0.00 6.22 0.03 95 1009.2
20260906094507 21 0 0.0 0.0 0.00 6.22 0.03 95 1009.1
20260906093607 21 0 0.0 0.0 0.00 6.22 0.03 95 1009.0
20260906092707 21 0 0.0 0.0 0.00 6.22 0.03 95 1009.0
20260906091807 21 0 0.0 0.0 0.00 6.22 0.03 95 1009.0
20260906090907 21 0 0.0 0.0 0.00 6.22 0.03 95 1009.2
20260906090007 21 0 0.0 0.0 0.00 6.22 0.03 95 1009.0
20260906085407 21 0 0.0 0.0 0.00 6.22 0.03 95 1009.0
20260906084507 21 0 0.0 0.0 0.00 6.22 0.03 95 1009.1
20260906083607 21 0 0.0 0.0 0.00 6.22 0.03 95 1009.0
20260906082707 22 0 0.0 0.0 0.00 6.22 0.03 95 1009.1
20260906081807 22 0 0.0 0.0 0.00 6.22 0.03 95 1008.9
20260906080907 22 0 0.0 0.0 0.00 6.22 0.03 94 1009.0
20260906080007 22 0 0.0 0.0 0.00 6.22 0.03 94 1009.0
20260906075407 22 0 0.0 0.0 0.00 6.22 0.03 94 1009.0
20260906074507 22 0 0.0 0.0 0.00 6.22 0.03 94 1009.0
20260906073607 22 0 0.0 0.0 0.00 6.22 0.03 94 1009.2
20260906072707 22 0 0.0 0.0 0.00 6.22 0.03 95 1009.2
20260906071807 22 0 0.0 0.0 0.00 6.22 0.03 95 1009.4
20260906071116 22 0 0.0 0.0 0.00 6.22 0.03 95 1009.6
20260906070007 22 0 0.0 0.0 0.00 6.22 0.03 94 1009.6
20260906065407 22 0 0.0 0.0 0.00 6.22 0.03 94 1009.5
20260906064507 22 0 0.0 0.0 0.00 6.22 0.03 94 1009.7
20260906063607 22 0 0.0 0.0 0.03 6.22 0.03 95 1009.7
20260906062917 22 0 0.0 0.0 0.03 6.22 0.03 94 1009.6
20260906061807 22 0 0.0 0.0 0.03 6.22 0.03 94 1009.6
20260906060907 22 0 0.0 0.0 0.03 6.22 0.03 94 1009.6
20260906060008 22 0 0.0 0.0 0.03 6.22 0.03 94 1009.7
20260906055407 22 0 0.0 0.0 0.03 6.22 0.03 94 1009.7
20260906054507 22 0 0.0 0.0 0.03 6.22 0.03 94 1009.7
20260906053818 22 0 0.0 0.0 0.00 6.20 0.00 94 1009.7
20260906052707 22 0 0.0 0.0 0.00 6.20 0.00 94 1009.7
20260906051807 22 0 0.0 0.0 0.00 6.20 0.00 94 1009.6
20260906050907 22 0 0.0 0.0 0.00 6.20 0.00 94 1009.5
20260906050007 22 0 0.0 0.0 0.00 6.20 0.00 94 1009.5
20260906045407 22 0 0.0 0.0 0.00 6.20 0.00 94 1009.4
20260906044507 22 0 0.0 0.0 0.00 6.20 0.00 94 1009.6
20260906043607 22 0 0.0 0.0 0.00 6.20 0.00 94 1009.9
20260906042707 23 0 0.0 0.0 0.00 6.20 0.00 94 1010.0
20260906042016 23 0 0.0 0.0 0.00 6.20 0.00 94 1010.2
20260906040907 22 0 0.0 0.0 0.00 6.20 0.00 94 1010.5
20260906040008 22 0 0.0 0.0 0.03 6.20 0.00 94 1010.6
20260906035618 22 0 0.0 0.0 0.13 6.20 6.20 94 1010.7
20260906034507 22 69 0.0 4.8 0.41 6.20 6.20 94 1010.7
20260906033607 22 53 1.6 4.8 0.41 6.20 6.20 94 1010.8
20260906032707 22 31 1.6 4.8 0.43 6.20 6.20 94 1010.5
20260906032020 22 51 1.6 6.4 0.43 6.20 6.20 94 1010.4
20260906030907 22 119 1.6 11.3 0.53 6.20 6.20 94 1010.6
20260906030218 22 199 4.8 20.9 0.53 6.20 6.20 93 1010.7
20260906025618 22 229 4.8 20.9 0.41 6.07 6.07 93 1010.9
20260906024507 22 316 1.6 12.9 0.13 5.79 5.79 92 1011.6
20260906023817 22 27 1.6 9.7 0.13 5.79 5.79 92 1011.1
20260906022707 22 181 0.0 4.8 0.10 5.77 5.77 92 1010.7
20260906021807 22 118 1.6 9.7 0.10 5.77 5.77 92 1010.5
20260906020907 22 62 0.0 4.8 0.00 5.66 5.66 92 1011.0
20260906020007 22 62 3.2 16.1 0.00 5.66 5.66 92 1010.9
20260906015407 22 65 3.2 12.9 0.00 5.66 5.66 92 1010.9
20260906014507 22 56 6.4 17.7 0.00 5.66 5.66 91 1010.5
20260906013607 23 28 3.2 9.7 0.00 5.66 5.66 90 1010.5
20260906012708 23 355 1.6 9.7 0.00 5.66 5.66 90 1010.4
20260906011807 23 277 1.6 9.7 0.00 5.66 5.66 90 1010.2
20260906010907 23 256 3.2 12.9 0.00 5.66 5.66 90 1009.9
20260906010007 23 247 3.2 11.3 0.00 5.66 5.66 90 1009.7
20260906005407 23 251 3.2 12.9 0.00 5.66 5.66 90 1009.5
20260906004507 23 253 3.2 12.9 0.00 5.66 5.66 91 1009.3
20260906003608 23 237 3.2 11.3 0.00 5.66 5.66 91 1009.6
20260906002707 23 231 1.6 9.7 0.03 5.66 5.66 91 1009.7
20260906001807 23 232 3.2 9.7 0.51 5.66 5.66 91 1009.7
20260906000907 23 265 1.6 6.4 0.89 5.66 5.66 92 1009.6
20260906000219 22 260 3.2 17.7 1.37 5.66 5.66 92 1009.7
20260905235617 22 250 4.8 17.7 2.46 5.66 5.66 92 1009.7
20260905234507 22 265 1.6 12.9 5.46 5.66 5.66 92 1009.7
20260905233607 22 263 3.2 16.1 5.66 5.66 5.66 92 1010.1
20260905232707 21 287 3.2 20.9 5.64 5.64 5.64 91 1009.9
20260905231807 21 302 3.2 20.9 5.16 5.16 5.16 91 1011.2
20260905230907 21 313 3.2 46.7 4.78 4.78 4.78 90 1012.0
20260905230008 21 338 12.9 49.9 4.11 4.11 4.11 89 1012.5
20260905225407 22 334 12.9 49.9 2.67 2.67 2.67 85 1012.3
20260905224507 26 324 9.7 51.5 0.20 0.20 0.25 79 1011.6
20260905223607 29 215 8.0 24.1 0.00 0.00 0.00 85 1009.7
20260905222918 29 214 8.0 24.1 0.00 0.00 0.00 84 1008.8
20260905221807 30 221 6.4 29.0 0.00 0.00 0.00 83 1009.0
20260905220907 30 223 6.4 29.0 0.00 0.00 0.00 82 1008.9
20260905220007 30 224 8.0 32.2 0.00 0.00 0.00 82 1008.6
20260905215407 30 216 11.3 33.8 0.00 0.00 0.00 81 1008.0
20260905214507 31 213 9.7 32.2 0.00 0.00 0.00 80 1008.3
20260905213607 31 227 8.0 29.0 0.00 0.00 0.00 79 1008.5
20260905212707 31 233 9.7 27.4 0.00 0.00 0.00 79 1008.4
20260905211807 31 226 9.7 32.2 0.00 0.00 0.00 78 1008.7
20260905211117 31 227 11.3 33.8 0.00 0.00 0.00 77 1008.6
20260905210007 31 224 11.3 38.6 0.00 0.00 0.00 77 1008.5
20260905205407 31 223 12.9 35.4 0.00 0.00 0.00 76 1008.4
20260905204507 32 213 8.0 24.1 0.00 0.00 0.00 76 1008.2
20260905203818 32 223 9.7 32.2 0.00 0.00 0.00 76 1008.5
20260905202918 32 224 9.7 32.2 0.00 0.00 0.00 75 1008.4
20260905201807 32 216 9.7 32.2 0.00 0.00 0.00 75 1008.5
20260905200907 32 222 11.3 35.4 0.00 0.00 0.00 75 1008.5
20260905200216 33 219 9.7 29.0 0.00 0.00 0.00 74 1008.5
20260905195407 33 226 9.7 38.6 0.00 0.00 0.00 75 1008.5
20260905194507 33 210 6.4 29.0 0.00 0.00 0.00 75 1008.7
20260905193607 33 223 9.7 29.0 0.00 0.00 0.00 72 1008.5
20260905192707 33 225 9.7 27.4 0.00 0.00 0.00 73 1008.8
20260905192017 33 204 8.0 27.4 0.00 0.00 0.00 74 1009.0
20260905191116 33 218 11.3 33.8 0.00 0.00 0.00 72 1009.2
20260905190007 33 206 8.0 27.4 0.00 0.00 0.00 72 1009.4
20260905185407 33 204 8.0 38.6 0.00 0.00 0.00 71 1009.5
20260905184507 34 223 9.7 32.2 0.00 0.00 0.00 71 1009.7
20260905183818 34 203 4.8 32.2 0.00 0.00 0.00 71 1009.8
20260905182707 33 208 6.4 22.5 0.00 0.00 0.00 72 1010.0
20260905181807 33 195 4.8 22.5 0.00 0.00 0.00 71 1010.0
20260905180907 34 185 4.8 22.5 0.00 0.00 0.00 69 1010.1
20260905180219 35 199 4.8 22.5 0.00 0.00 0.00 68 1010.1
20260905175407 36 220 6.4 27.4 0.00 0.00 0.00 67 1010.3
20260905174718 36 233 4.8 17.7 0.00 0.00 0.00 67 1010.3
20260905173607 35 220 6.4 22.5 0.00 0.00 0.00 69 1010.5
20260905172917 35 234 9.7 27.4 0.00 0.00 0.00 68 1010.6
20260905171807 36 291 1.6 11.3 0.00 0.00 0.00 64 1010.6
20260905170907 36 274 3.2 16.1 0.00 0.00 0.00 62 1010.7
20260905170007 36 264 3.2 17.7 0.00 0.00 0.00 64 1010.9
20260905165407 36 237 3.2 17.7 0.00 0.00 0.00 64 1010.9
20260905164507 36 271 3.2 20.9 0.00 0.00 0.00 64 1011.0
20260905163607 36 272 3.2 16.1 0.00 0.00 0.00 66 1011.2
20260905162707 36 288 1.6 17.7 0.00 0.00 0.00 66 1011.3
20260905161807 35 267 4.8 20.9 0.00 0.00 0.00 66 1011.5
20260905160907 35 270 1.6 11.3 0.00 0.00 0.00 67 1011.5
20260905160007 35 283 3.2 16.1 0.00 0.00 0.00 69 1011.9
20260905155407 35 276 3.2 16.1 0.00 0.00 0.00 69 1011.9
20260905154507 35 271 3.2 17.7 0.00 0.00 0.00 69 1011.9
20260905153607 35 266 3.2 20.9 0.00 0.00 0.00 70 1012.1
20260905152916 34 268 4.8 20.9 0.00 0.00 0.00 69 1012.1
20260905152019 34 237 6.4 20.9 0.00 0.00 0.00 70 1012.2
20260905150907 34 278 4.8 22.5 0.00 0.00 0.00 70 1012.3
20260905150008 34 285 3.2 16.1 0.00 0.00 0.00 71 1012.3
20260905145408 33 271 4.8 22.5 0.00 0.00 0.00 72 1012.3
20260905144507 33 250 6.4 24.1 0.00 0.00 0.00 71 1012.3
20260905143607 33 250 8.0 24.1 0.00 0.00 0.00 72 1012.3
20260905142707 33 280 4.8 22.5 0.00 0.00 0.00 74 1012.4
20260905141807 32 272 6.4 22.5 0.00 0.00 0.00 74 1012.5
20260905140907 32 272 6.4 22.5 0.00 0.00 0.00 74 1012.7
20260905140008 32 268 4.8 22.5 0.00 0.00 0.00 75 1012.6
20260905135408 32 274 3.2 20.9 0.00 0.00 0.00 76 1012.7
20260905134508 31 277 4.8 22.5 0.00 0.00 0.00 76 1012.6
20260905133607 31 286 4.8 24.1 0.00 0.00 0.00 77 1012.6
20260905132708 31 273 4.8 27.4 0.00 0.00 0.00 77 1012.6
20260905131807 31 278 3.2 20.9 0.00 0.00 0.00 79 1012.6
20260905130907 30 271 4.8 27.4 0.00 0.00 0.00 80 1012.6
20260905130007 30 269 6.4 29.0 0.00 0.00 0.00 79 1012.7
20260905125408 30 272 4.8 29.0 0.00 0.00 0.00 80 1012.7
20260905124507 30 267 4.8 20.9 0.00 0.00 0.00 81 1012.8
20260905123607 29 274 3.2 17.7 0.00 0.00 0.00 83 1012.7
20260905122707 28 278 3.2 20.9 0.00 0.00 0.00 84 1012.6
20260905122018 28 278 3.2 20.9 0.00 0.00 0.00 86 1012.7
20260905120907 27 255 1.6 16.1 0.00 0.00 0.00 90 1012.7
20260905120008 26 285 1.6 9.7 0.00 0.00 0.00 93 1012.6
20260905115407 26 280 0.0 6.4 0.00 0.00 0.00 95 1012.5
20260905114507 25 254 1.6 11.3 0.00 0.00 0.00 96 1012.4